Location: Dobrzeń Wielki
(50.7693°N, 17.8414°E)
Time: 05:15:21
(UTC+01:00)

ISS - Pass Details

Date: 25 January 2019
Orbit: 403 x 411 km, 51.6° (Epoch: 17 February)

Event Time Altitude Azimuth Distance (km) Brightness Sun altitude
Rises 18:28:11 0° 232° (SW) 2,328 1.0 -18.8°
Reaches altitude 10° 18:30:19 10° 225° (SW) 1,471 -0.3 -19.1°
Enters shadow 18:33:10 41° 168° (SSE) 614 -3.0 -19.6°
